Hourly Weather Bolshie Lzi

Today, 20 June, Sunday

Time Temperature Precipitation Wind Pressure Humidity
00:00 +19°C° 0 mm 2 mps 758 mmHg 78%
01:00 +19°C° 0 mm 2 mps 758 mmHg 81%
02:00 +18°C° 0 mm 2 mps 758 mmHg 82%
03:00 +19°C° 0 mm 2 mps 758 mmHg 83%
04:00 +19°C° 0 mm 2 mps 758 mmHg 83%
05:00 +20°C° 0 mm 2 mps 758 mmHg 83%
06:00 +23°C° 0 mm 2 mps 758 mmHg 75%
07:00 +25°C° 0 mm 2 mps 758 mmHg 68%
08:00 +27°C° 0 mm 3 mps 758 mmHg 60%
09:00 +28°C° 0 mm 3 mps 758 mmHg 54%
10:00 +29°C° 0 mm 3 mps 758 mmHg 48%
11:00 +31°C° 0 mm 3 mps 758 mmHg 41%
12:00 +31°C° 0 mm 3 mps 757 mmHg 40%
13:00 +33°C° 0 mm 4 mps 757 mmHg 38%
14:00 +33°C° 0 mm 4 mps 757 mmHg 37%
15:00 +33°C° 0 mm 3 mps 757 mmHg 39%
16:00 +33°C° 0 mm 3 mps 757 mmHg 40%
17:00 +31°C° 0 mm 3 mps 757 mmHg 41%
18:00 +30°C° 0 mm 2 mps 756 mmHg 51%
19:00 +28°C° 0 mm 2 mps 756 mmHg 60%
20:00 +26°C° 0 mm 2 mps 756 mmHg 69%
21:00 +25°C° 0 mm 2 mps 756 mmHg 71%
22:00 +24°C° 0 mm 2 mps 756 mmHg 72%
23:00 +23°C° 0 mm 2 mps 757 mmHg 74%

Tomorrow, 21 June, Monday

Time Temperature Precipitation Wind Pressure Humidity
00:00 +23°C° 0 mm 2 mps 757 mmHg 77%
01:00 +21°C° 0 mm 2 mps 757 mmHg 81%
02:00 +20°C° 0 mm 2 mps 757 mmHg 84%
03:00 +21°C° 0.1 mm 2 mps 757 mmHg 86%
04:00 +21°C° 0.1 mm 2 mps 757 mmHg 87%
05:00 +22°C° 0.1 mm 1 mps 757 mmHg 88%
06:00 +24°C° 0 mm 2 mps 757 mmHg 81%
07:00 +26°C° 0 mm 2 mps 757 mmHg 73%
08:00 +28°C° 0 mm 2 mps 757 mmHg 65%
09:00 +29°C° 0 mm 3 mps 757 mmHg 58%
10:00 +31°C° 0 mm 3 mps 757 mmHg 52%
11:00 +33°C° 0 mm 3 mps 757 mmHg 45%
12:00 +34°C° 0 mm 3 mps 757 mmHg 43%
13:00 +34°C° 0 mm 3 mps 756 mmHg 40%
14:00 +35°C° 0 mm 3 mps 756 mmHg 37%
15:00 +35°C° 0 mm 3 mps 756 mmHg 39%
16:00 +35°C° 0 mm 3 mps 756 mmHg 41%
17:00 +34°C° 0 mm 3 mps 755 mmHg 43%
18:00 +31°C° 0 mm 2 mps 755 mmHg 52%
19:00 +29°C° 0 mm 2 mps 755 mmHg 60%
20:00 +27°C° 0 mm 1 mps 756 mmHg 69%
21:00 +26°C° 0.1 mm 2 mps 756 mmHg 72%
22:00 +25°C° 0.1 mm 2 mps 756 mmHg 74%
23:00 +24°C° 0.1 mm 2 mps 756 mmHg 77%

Day after tomorrow, 22 June, Tuesday

Time Temperature Precipitation Wind Pressure Humidity
00:00 +23°C° 0 mm 2 mps 756 mmHg 78%
01:00 +21°C° 0 mm 2 mps 756 mmHg 80%
02:00 +20°C° 0 mm 2 mps 756 mmHg 81%
03:00 +21°C° 0 mm 2 mps 756 mmHg 81%
04:00 +21°C° 0 mm 2 mps 756 mmHg 81%
05:00 +21°C° 0 mm 2 mps 756 mmHg 81%
06:00 +24°C° 0 mm 2 mps 756 mmHg 74%
07:00 +26°C° 0 mm 3 mps 756 mmHg 67%
08:00 +28°C° 0 mm 3 mps 756 mmHg 60%
09:00 +29°C° 0 mm 4 mps 756 mmHg 54%
10:00 +32°C° 0 mm 4 mps 756 mmHg 49%
11:00 +33°C° 0 mm 5 mps 755 mmHg 43%
12:00 +34°C° 0 mm 5 mps 755 mmHg 42%
13:00 +34°C° 0 mm 5 mps 755 mmHg 42%
14:00 +34°C° 0 mm 5 mps 755 mmHg 42%
15:00 +33°C° 0 mm 4 mps 755 mmHg 48%
16:00 +31°C° 0 mm 3 mps 755 mmHg 54%
17:00 +30°C° 0 mm 2 mps 755 mmHg 61%
18:00 +29°C° 0 mm 2 mps 755 mmHg 66%
19:00 +28°C° 0 mm 2 mps 755 mmHg 72%
20:00 +27°C° 0 mm 2 mps 755 mmHg 78%
21:00 +26°C° 0.1 mm 2 mps 755 mmHg 81%
22:00 +25°C° 0.1 mm 2 mps 755 mmHg 84%
23:00 +24°C° 0.1 mm 2 mps 755 mmHg 87%

23 June, Wednesday

Time Temperature Precipitation Wind Pressure Humidity
00:00 +23°C° 0 mm 2 mps 756 mmHg 88%
01:00 +23°C° 0 mm 2 mps 756 mmHg 90%
02:00 +23°C° 0 mm 2 mps 756 mmHg 91%
03:00 +23°C° 0 mm 2 mps 756 mmHg 91%
04:00 +23°C° 0 mm 2 mps 756 mmHg 91%
05:00 +23°C° 0 mm 2 mps 756 mmHg 90%
06:00 +25°C° 0 mm 2 mps 756 mmHg 82%
07:00 +27°C° 0 mm 2 mps 757 mmHg 73%
08:00 +29°C° 0 mm 3 mps 757 mmHg 65%
09:00 +30°C° 0 mm 3 mps 757 mmHg 59%
10:00 +33°C° 0 mm 3 mps 757 mmHg 53%
11:00 +34°C° 0 mm 3 mps 757 mmHg 46%
12:00 +34°C° 0 mm 3 mps 757 mmHg 44%
13:00 +35°C° 0 mm 3 mps 757 mmHg 41%
14:00 +35°C° 0 mm 4 mps 757 mmHg 38%
15:00 +35°C° 0 mm 3 mps 757 mmHg 39%
16:00 +35°C° 0 mm 3 mps 757 mmHg 41%
17:00 +34°C° 0 mm 3 mps 757 mmHg 42%
18:00 +31°C° 0 mm 2 mps 757 mmHg 51%
19:00 +29°C° 0 mm 1 mps 757 mmHg 61%
20:00 +28°C° 0 mm 1 mps 757 mmHg 70%
21:00 +24°C° 0 mm 0 mps 757 mmHg 74%
22:00 +23°C° 0 mm 0 mps 757 mmHg 78%
23:00 +22°C° 0 mm 0 mps 757 mmHg 81%

24 June, Thursday

Time Temperature Precipitation Wind Pressure Humidity
00:00 +21°C° 0 mm 0 mps 757 mmHg 84%
01:00 +21°C° 0 mm 0 mps 757 mmHg 86%
02:00 +22°C° 0 mm 1 mps 757 mmHg 88%
03:00 +23°C° 0 mm 1 mps 757 mmHg 87%
04:00 +23°C° 0 mm 1 mps 757 mmHg 86%
05:00 +22°C° 0 mm 0 mps 757 mmHg 85%
06:00 +25°C° 0 mm 1 mps 757 mmHg 77%
07:00 +27°C° 0 mm 1 mps 757 mmHg 69%
08:00 +29°C° 0 mm 2 mps 757 mmHg 60%
09:00 +30°C° 0 mm 2 mps 757 mmHg 55%
10:00 +32°C° 0 mm 2 mps 756 mmHg 51%
11:00 +34°C° 0 mm 3 mps 756 mmHg 46%
12:00 +35°C° 0 mm 3 mps 756 mmHg 44%
13:00 +35°C° 0 mm 4 mps 756 mmHg 41%
14:00 +36°C° 0 mm 4 mps 755 mmHg 39%
15:00 +34°C° 0.4 mm 4 mps 755 mmHg 49%
16:00 +30°C° 0.4 mm 4 mps 755 mmHg 59%
17:00 +28°C° 0.4 mm 4 mps 754 mmHg 69%
18:00 +26°C° 1.6 mm 3 mps 755 mmHg 76%
19:00 +25°C° 1.6 mm 2 mps 755 mmHg 84%
20:00 +23°C° 1.6 mm 1 mps 756 mmHg 92%
21:00 +22°C° 0.1 mm 1 mps 756 mmHg 93%
22:00 +22°C° 0.1 mm 1 mps 756 mmHg 95%
23:00 +21°C° 0.1 mm 1 mps 756 mmHg 97%

25 June, Friday

Time Temperature Precipitation Wind Pressure Humidity
00:00 +21°C° 0 mm 1 mps 756 mmHg 97%
01:00 +20°C° 0 mm 1 mps 756 mmHg 97%
02:00 +20°C° 0 mm 1 mps 756 mmHg 97%
03:00 +20°C° 0 mm 1 mps 755 mmHg 96%
04:00 +20°C° 0 mm 1 mps 755 mmHg 94%
05:00 +20°C° 0 mm 1 mps 755 mmHg 93%
06:00 +22°C° 0 mm 1 mps 755 mmHg 87%
07:00 +23°C° 0 mm 1 mps 755 mmHg 82%
08:00 +25°C° 0 mm 1 mps 755 mmHg 76%
09:00 +26°C° 0 mm 1 mps 755 mmHg 71%
10:00 +28°C° 0 mm 1 mps 755 mmHg 65%
11:00 +29°C° 0 mm 1 mps 754 mmHg 60%
12:00 +30°C° 0 mm 2 mps 754 mmHg 56%
13:00 +31°C° 0 mm 2 mps 754 mmHg 53%
14:00 +32°C° 0 mm 2 mps 753 mmHg 50%
15:00 +30°C° 0.3 mm 3 mps 753 mmHg 55%
16:00 +29°C° 0.3 mm 4 mps 753 mmHg 60%
17:00 +27°C° 0.3 mm 5 mps 752 mmHg 66%
18:00 +25°C° 1.2 mm 4 mps 752 mmHg 76%
19:00 +22°C° 1.2 mm 3 mps 752 mmHg 85%
20:00 +21°C° 1.2 mm 1 mps 752 mmHg 95%
21:00 +21°C° 1.1 mm 1 mps 752 mmHg 96%
22:00 +21°C° 1.1 mm 1 mps 752 mmHg 97%
23:00 +21°C° 1.1 mm 1 mps 752 mmHg 98%
Show more